Regional Weather Roundup
Issued by NWS

Home | Current Version | Previous Version | Text Only | Print | Product List | Glossary On
Versions: 1 2 3 4 5 6 7 8 9 10 11 12 13 14 15 16 17 18 19 20 21 22 23 24 25 26 27 28 29 30 31 32 33 34 35 36 37 38 39 40 41 42 43 44 45 46 47 48 49 50
316
ASUS43 KOAX 260802
RWRNE

WEATHER ROUNDUP FOR NEBRASKA
NATIONAL WEATHER SERVICE OMAHA NE
200 AM CST SUN FEB 26 2017

NOTES: SATELLITE DATA IS BEING USED TO AUGMENT CLOUD COVER ABOVE
       12000 FEET.
       "FAIR" INDICATES FEW OR NO CLOUDS BELOW 12,000 FEET WITH NO
       SIGNIFICANT WEATHER AND/OR OBSTRUCTIONS TO VISIBILITY.

  * THESE STATIONS DO NOT REPORT WEATHER SUCH AS RAIN...SNOW OR FOG.

NEZ001>004-019>022-054>056-260900-
NEBRASKA PANHANDLE

CITY           SKY/WX    TMP DP  RH WIND       PRES   REMARKS
SCOTTSBLUFF    CLEAR      8   2  76 NW8       29.81R WCI  -4
ALLIANCE       CLEAR      7   0  73 W15       29.77R WCI -10
CHADRON        CLEAR     10   1  67 SW14      29.79R WCI  -6
KIMBALL        CLEAR     14   6  69 W10       29.80S WCI   1
SIDNEY         CLEAR     16   5  62 W13       29.82S WCI   2
$$

NEZ057>060-069>072-079>082-260900-
SOUTHWEST NEBRASKA

CITY           SKY/WX    TMP DP  RH WIND       PRES   REMARKS
NORTH PLATTE   CLEAR     21  13  71 W10       29.84S WCI  10
IMPERIAL       CLOUDY    23  15  71 W7        29.86R WCI  15
LEXINGTON      MOCLDY    20  15  81 SW5       29.86S WCI  13
MCCOOK         CLOUDY    26  16  65 W6        29.87S WCI  19
OGALLALA       CLEAR     12  10  90 SW8       29.84S WCI   1
$$

NEZ005>010-023>029-035>040-094-260900-
NORTH CENTRAL NEBRASKA

CITY           SKY/WX    TMP DP  RH WIND       PRES   REMARKS
VALENTINE      CLEAR     11   3  70 W10       29.76S WCI  -3
AINSWORTH      CLEAR     18  11  72 W13       29.76S WCI   5
BROKEN BOW     CLEAR     21  12  68 W6        29.82S WCI  13
O`NEILL        CLEAR     20  12  71 SW9       29.78S WCI   9
ORD            CLEAR     22  11  62 SW10      29.82S WCI  11
THEDFORD       CLEAR     21  11  64 W16       29.79S WCI   7
$$

NEZ041-046>049-061>064-073>077-083>087-260900-
SOUTH CENTRAL NEBRASKA

CITY           SKY/WX    TMP DP  RH WIND       PRES   REMARKS
GRAND ISLAND   PTCLDY    29  20  69 SW14      29.88R WCI  18
AURORA         MOCLDY    30  22  72 SW9       29.88S WCI  22
HASTINGS       CLOUDY    33  18  53 SW13      29.88F WCI  24
HEBRON         CLOUDY    34  24  66 W6        29.93S WCI  28
HOLDREGE       CLOUDY    31  15  53 SW10      29.88R WCI  22
KEARNEY *      PTCLDY    27  18  69 SW5       29.88S WCI  21
YORK           CLOUDY    30  25  80 SW13      29.88S WCI  20
$$

NEZ011>018-030>034-042>045-260900-
NORTHEAST NEBRASKA

CITY           SKY/WX    TMP DP  RH WIND       PRES   REMARKS
NORFOLK        CLEAR     19  14  81 W6        29.81S WCI  11
ALBION         CLEAR     24  16  71 CALM      29.82S
BLAIR          CLOUDY    31  26  80 S10       29.84F WCI  22
FREMONT        PTCLDY    30  24  78 SW7       29.84F WCI  23
TEKAMAH        CLOUDY    23  19  85 SW6       29.86R WCI  16
WAYNE          PTCLDY    16  14  91 CALM      29.81S
$$

NEZ050>053-065>068-078-088>093-260900-
SOUTHEAST NEBRASKA

CITY           SKY/WX    TMP DP  RH WIND       PRES   REMARKS
LINCOLN        CLOUDY    33  25  72 SW10      29.90F WCI  25
OMAHA EPPLEY   CLOUDY    34  23  64 SW9       29.86F WCI  27
BEATRICE       MOCLDY    31  21  66 SW5       29.93R WCI  27
FALLS CITY     CLOUDY    33  19  56 SW8       29.95R WCI  26
NEBRASKA CITY  CLEAR     31  18  59 SW14      29.92R WCI  21
PLATTSMOUTH    CLOUDY    31  19  61 SW13      29.89S WCI  21
$$

NEZ044-045-051>053-067-260900-
OMAHA AREA

CITY           SKY/WX    TMP DP  RH WIND       PRES   REMARKS
OMAHA EPPLEY   CLOUDY    34  23  64 SW9       29.86F WCI  27
BLAIR          CLOUDY    31  26  80 S10       29.84F WCI  22
FREMONT        PTCLDY    30  24  78 SW7       29.84F WCI  23
MILLARD        PTCLDY    33  26  74 S3        29.87F
OFFUTT AFB     CLOUDY    32  19  60 S3        29.88F
PLATTSMOUTH    CLOUDY    31  19  61 SW13      29.89S WCI  21
WAHOO          FAIR      31  24  74 SW12      29.86F WCI  21
$$




USA.gov is the U.S. government's official web portal to all federal, state and local government web resources and services.